Location: Bakhuizen
(52.8696°N, 5.4575°E)
Time: 20:45:31
(UTC+00:00)

RESURS DK-1 - Pass Details

Date: 11 May 2021
Orbit: 553 x 564 km, 69.9° (Epoch: 21 June)

Event Time Altitude Azimuth Distance (km) Brightness Sun altitude
Rises 22:55:43 0° 327° (NNW) 2,767 7.1 -18.5°
Reaches altitude 10° 22:57:56 10° 329° (NNW) 1,868 6.0 -18.6°
Maximum altitude 23:02:07 78° 55° (NE) 583 2.4 -18.7°
Enters shadow 23:03:34 40° 136° (SE) 847 2.8 -18.7°
